#timestamp,LO_Frequency,Hit,StdDev 
1599951615.5,286046999.9,N
1599951635.3,286046998.9,N
1599951655.2,286046998.2,N
1599951675.9,286046999.5,N
1599951695.7,286046999.4,N
1599951715.6,286046999.4,N
1599951735.4,286046998.3,N
1599951755.2,286047000.8,N
1599951775.1,286047000.0,N
1599951776.0,286047000.0,N
1599951795.8,286047000.6,N
1599951815.7,286047000.9,N
1599951835.5,286047000.0,N
1599951855.3,286047001.2,N
1599951875.2,286047000.8,N
1599951895.0,286046998.6,N
1599951895.9,286046998.6,N
1599951915.8,286046997.4,N
1599951935.6,286047001.1,N
1599951955.4,286047000.4,N
1599951975.3,286047000.8,N
1599951995.1,286047001.1,N
1599952015.8,286046999.2,N
1599952035.7,286046997.0,N
1599952055.5,286046997.8,N
1599952075.4,286046997.3,N
1599952095.2,286046999.6,N
1599952115.0,286046995.3,Y
1599952115.9,286046995.3,P
1599952135.8,286046998.3,N
1599952155.6,286047000.6,N
1599952175.5,286047000.0,N
1599952195.3,286046999.9,N
1599952215.1,286046999.7,N
1599952235.9,286047004.1,N
1599952255.7,286047004.1,N
1599952275.5,286047004.2,N
1599952295.4,286047001.5,N
1599952315.2,286047002.2,N
1599952335.1,286047003.6,N
1599952336.0,286047003.6,N
1599952355.8,286047005.9,N
1599952375.6,286047004.4,N
1599952395.5,286047001.6,N
1599952415.3,286047003.6,N
1599952435.1,286047001.5,N
1599952455.9,286047002.6,N
1599952475.7,286047000.6,N
1599952495.6,286046998.5,N
1599952515.4,286046999.3,N
1599952535.2,286046999.3,N
1599952555.1,286047000.2,N
1599952556.0,286047000.2,N
1599952575.8,286047000.0,N
1599952595.7,286047002.4,N
1599952615.5,286047001.3,N
1599952635.3,286047002.2,N
1599952655.2,286047002.8,N
1599952675.0,286046999.9,N
1599952675.9,286046999.9,N
1599952695.7,286046999.7,N
1599952715.6,286047001.9,N
1599952735.4,286047003.6,N
1599952755.3,286047004.7,N
1599952775.1,286047003.6,N
1599952776.0,286047003.6,N
1599952795.8,286047002.8,N
1599952815.7,286046999.7,N
1599952835.5,286047002.6,N
1599952855.4,286046999.9,N
1599952875.2,286047003.9,N
1599952895.0,286047001.6,N
1599952895.9,286047001.6,N
1599952915.8,286047002.1,N
1599952935.6,286046999.8,N
1599952955.4,286046999.7,N
1599952975.3,286046998.1,N
1599952995.1,286047000.8,N
1599953015.9,286046998.6,N
1599953035.7,286047000.2,N
1599953055.5,286046999.9,N
1599953075.4,286046996.5,N
1599953095.2,286047000.7,N
1599953115.0,286046998.6,N
1599953115.9,286046998.6,N
1599953135.8,286046999.2,N
1599953155.6,286047000.3,N
1599953175.5,286047000.8,N
1599953195.3,286047000.4,N
1599953215.1,286047000.4,N
1599953235.9,286047000.7,N
1599953255.7,286047000.6,N
1599953275.5,286046998.7,N
1599953295.4,286047000.0,N
1599953315.2,286047000.0,N
1599953335.1,286047004.3,N
1599953336.0,286047004.3,N
1599953355.8,286047001.4,N
1599953375.6,286046999.7,N
1599953395.5,286047003.1,N
1599953415.3,286047005.3,N
1599953435.2,286047005.1,N
1599953455.9,286047005.7,N
1599953475.7,286047005.5,N
1599953495.6,286047001.6,N
1599953515.4,286047004.8,N
1599953535.2,286047003.7,N
1599953555.1,286047003.6,N
1599953556.0,286047003.6,N
1599953575.8,286047002.3,N
1599953595.7,286047001.7,N
1599953615.5,286047004.3,N
1599953635.3,286047003.4,N
1599953655.2,286047005.9,N
1599953675.0,286047007.6,Y
1599953675.9,286047007.6,P
1599953695.8,286047004.1,N
1599953715.6,286047001.9,N
1599953735.4,286047002.4,N
1599953755.3,286047000.7,N
1599953775.1,286046999.6,N
1599953795.9,286046999.3,N
1599953815.7,286047002.7,N
1599953835.5,286047002.5,N
1599953855.4,286047002.5,N
1599953875.2,286047000.7,N
1599953895.0,286046996.9,N
1599953895.9,286046996.9,N
1599953915.8,286046998.5,N
1599953935.6,286046998.3,N
1599953955.5,286047000.5,N
1599953975.3,286047001.2,N
1599953995.1,286047000.9,N
1599954015.9,286047000.4,N
1599954035.7,286047002.1,N
1599954055.5,286047001.8,N
1599954075.4,286046996.6,N
1599954095.2,286046999.9,N
1599954115.1,286046999.4,N
1599954116.0,286046999.4,N
1599954135.8,286047000.7,N
1599954155.6,286046998.6,N
1599954175.5,286047001.2,N
1599954195.3,286047002.8,N
1599954215.1,286046996.8,N
1599954235.9,286046999.2,N
1599954255.7,286046999.2,N
1599954275.6,286046996.6,N
1599954295.4,286046998.9,N
1599954315.2,286047000.9,N
1599954335.1,286046998.4,N
1599954336.0,286046998.4,N
1599954355.8,286047002.4,N
1599954375.7,286047002.4,N
1599954395.5,286046999.8,N
1599954415.3,286047001.3,N
1599954435.2,286047001.0,N
1599954455.0,286047000.5,N
1599954455.9,286047000.5,N
1599954475.7,286047000.6,N
1599954495.6,286047004.4,N
1599954515.4,286047004.2,N
1599954535.3,286047004.1,N
1599954555.1,286047002.7,N
1599954556.0,286047002.7,N
1599954575.8,286047002.6,N
1599954595.7,286047001.3,N
1599954615.5,286047001.5,N
1599954635.3,286046999.7,N
1599954655.2,286047000.2,N
1599954675.0,286047001.4,N
1599954675.9,286047001.4,N
1599954695.8,286047002.5,N
1599954715.6,286047003.9,N
1599954735.4,286047001.8,N
1599954755.3,286047002.6,N
1599954775.1,286046998.7,N
1599954795.9,286046999.8,N
1599954815.7,286047003.8,N
1599954835.5,286047005.8,Y
1599954855.4,286047000.8,P
1599954875.2,286047001.2,P
1599954895.0,286046999.0,P
1599954895.9,286046999.0,N
1599954915.8,286046997.1,N
1599954935.6,286046998.9,N
1599954955.5,286046999.1,N
1599954975.3,286046998.8,N
1599954995.1,286046998.7,N
1599955015.9,286046995.3,Y
1599955035.7,286046996.8,P
1599955055.6,286046997.8,N
1599955075.4,286046995.7,P
1599955095.2,286046995.0,Y
1599955115.1,286046998.9,P
1599955116.0,286046998.9,N
1599955135.8,286046998.6,N
1599955155.6,286046998.6,N
1599955175.5,286046999.9,N
1599955195.3,286047002.5,Y
